Flag for Norway Weather past 2 weeks in Ålesund, Norway

Now
55 °F

Cool.


Feels Like: 53 °F
Forecast: 54 / 62 °F
Wind: 9 mph from East

Location: Alesund / Vigra

Current Time: Aug 4, 2015 at 5:23:02 AM

Latest Report: Aug 4, 2015 at 4:50 AM


Visibility: N/A

Pressure: 29.89 "Hg

Humidity: 72%

Dew point: 46 °F

Location of ÅlesundLocation

Historic Weather in Ålesund — Graph

°F

Ålesund temperature yesterday

Maximum temperature yesterday: 61 °F (at 5:20 PM)
Minimum temperature yesterday: 46 °F (at 1:50 AM)
Average temperature yesterday: 55 °F

Past Weeks' High & Low Weather Summary

 TemperatureHumidityPressure
High61 °F (Jul 23, 2:20 PM)100% (Jul 21, 1:20 AM)30.12 "Hg (Jul 21, 1:20 AM)
Low46 °F (Jul 31, 3:20 AM)59% (Aug 1, 12:50 PM)29.47 "Hg (Jul 27, 6:20 AM)
Average54 °F82%29.74 "Hg
* Reported Jul 20 3:20 AM — Aug 4 3:50 AM, Ålesund, Weather by CustomWeather, © 2015

Note: Actual official high and low records may vary slightly from our data, if they occured in-between our weather recording intervals... More about our weather records

Advertising

Ålesund weather history for previous 24 hours

 ConditionsComfort  
Time TempWeatherWind HumidityBarometerVisibility
3:50 AM
Tue, Aug 4
55 °FPassing clouds.13 mph82%29.89 "HgN/A
3:20 AM55 °FCool.12 mph82%29.92 "HgN/A
2:50 AM55 °FCool.12 mph82%29.92 "HgN/A
2:20 AM55 °FMostly cloudy.10 mph88%29.92 "HgN/A
1:50 AM55 °FPassing clouds.8 mph88%29.95 "HgN/A
1:20 AM55 °FPassing clouds.10 mph82%29.95 "HgN/A
12:50 AM55 °FPassing clouds.12 mph82%29.98 "HgN/A
12:20 AM55 °FOvercast.10 mph82%29.98 "HgN/A
11:20 PM
Mon, Aug 3
57 °FClear.10 mph77%29.98 "Hg10 mi
10:50 PM57 °FSunny.13 mph77%29.98 "Hg10 mi
10:20 PM57 °FSunny.10 mph77%29.98 "Hg10 mi
9:20 PM57 °FSunny.12 mph77%30.01 "Hg10 mi
8:20 PM57 °FSunny.10 mph77%30.01 "Hg10 mi
7:50 PM57 °FSunny.10 mph77%30.04 "Hg10 mi
6:50 PM59 °FSunny.9 mph68%30.04 "Hg10 mi
6:20 PM61 °FSunny.10 mph63%30.07 "Hg10 mi
5:50 PM61 °FSunny.9 mph68%30.07 "Hg10 mi
5:20 PM61 °FSunny.12 mph72%30.07 "Hg10 mi
4:50 PM59 °FSunny.9 mph72%30.07 "Hg10 mi
4:20 PM57 °FSunny.10 mph77%30.09 "Hg10 mi
3:50 PM59 °FSunny.13 mph77%30.09 "Hg10 mi
3:20 PM59 °FSunny.13 mph77%30.09 "Hg10 mi
2:50 PM59 °FSunny.12 mph77%30.09 "Hg10 mi
2:20 PM59 °FSunny.10 mph72%30.09 "Hg10 mi
1:50 PM59 °FPartly sunny.10 mph68%30.09 "HgN/A
1:20 PM59 °FPassing clouds.9 mph72%30.09 "HgN/A
12:50 PM57 °FSunny.9 mph77%30.09 "Hg10 mi
12:20 PM57 °FSunny.8 mph72%30.09 "Hg10 mi
11:50 AM59 °FSunny.12 mph68%30.09 "Hg10 mi
11:20 AM57 °FSunny.13 mph72%30.09 "Hg10 mi
10:50 AM57 °FSunny.6 mph72%30.09 "Hg10 mi
10:20 AM57 °FSunny.8 mph77%30.09 "Hg10 mi
9:50 AM57 °FPassing clouds.3 mph72%30.09 "HgN/A
9:20 AM55 °FSunny.5 mph72%30.09 "Hg10 mi
8:50 AM54 °FPassing clouds.3 mph82%30.09 "HgN/A
8:20 AM54 °FPassing clouds.3 mph82%30.09 "HgN/A
7:50 AM54 °FSunny.5 mph82%30.09 "Hg10 mi
7:20 AM52 °FSunny.6 mph88%30.09 "Hg10 mi
6:50 AM50 °FSunny.6 mph94%30.09 "Hg10 mi
6:20 AM50 °FSunny.5 mph94%30.09 "Hg10 mi
5:50 AM48 °FClear.6 mph94%30.12 "Hg10 mi
5:20 AM46 °FCool.7 mph100%30.12 "HgN/A
Weather by CustomWeather, © 2015

See weather overviewHow to use our weather pages